Regional Weather Roundup
Issued by NWS

Home | Current Version | Previous Version | Graphics & Text | Print | Product List | Glossary On
Versions: 1 2 3 4 5 6 7 8 9 10 11 12 13 14 15 16 17 18 19 20 21 22 23 24 25 26 27 28 29 30 31 32 33 34 35 36 37 38 39 40 41 42 43 44 45 46 47 48 49 50
000
ASUS43 KBIS 311759
RWRND

NORTH DAKOTA REGIONAL WEATHER ROUNDUP
NATIONAL WEATHER SERVICE BISMARCK ND
100 PM CDT THU JUL 31 2014

NOTE: "FAIR" INDICATES FEW OR NO CLOUDS BELOW 12,000 FEET WITH NO
SIGNIFICANT WEATHER AND/OR OBSTRUCTIONS TO VISIBILITY.


NDZ001>003-009>011-017-311900-
NORTHWEST NORTH DAKOTA

CITY           SKY/WX    TMP DP  RH WIND       PRES   REMARKS
WILLISTON      MOSUNNY   80  56  43 E6        30.08S
6HR MIN TEMP:  62; 6HR MAX TEMP:  80; 6HR PCP: TRACE;

MINOT          SUNNY     79  55  43 MISG      30.08
MINOT AFB      SUNNY     78  55  45 VRB3      30.08S
$$

NDZ018>021-031>035-040>046-311900-
SOUTHWEST NORTH DAKOTA

CITY           SKY/WX    TMP DP  RH WIND       PRES   REMARKS
BISMARCK       MOSUNNY   83  55  38 VRB5      30.08F
6HR MIN TEMP:  55; 6HR MAX TEMP:  83;

GARRISON         N/A     78  58  49 VRB6      30.09S
6HR MIN TEMP:  55; 6HR MAX TEMP:  78;

HETTINGER ARPT MOSUNNY   82  53  36 W7        30.12F
$$

NDZ004>008-012>016-024-026-027-054-311900-
NORTHEAST NORTH DAKOTA

CITY           SKY/WX    TMP DP  RH WIND       PRES   REMARKS
GRAND FORKS    MOSUNNY   80  63  55 VRB6      30.02F
GRND FRKS AFB  SUNNY     80  63  56 VRB5      30.03F
DEVILS LAKE    SUNNY     79  61  53 W9        30.05F
$$

NDZ022-023-025-028>030-036>039-047>053-311900-
SOUTHEAST NORTH DAKOTA

CITY           SKY/WX    TMP DP  RH WIND       PRES   REMARKS
FARGO          MOSUNNY   82  61  48 NW10      30.02F
6HR MIN TEMP:  56; 6HR MAX TEMP:  82;

$$




USA.gov is the U.S. government's official web portal to all federal, state and local government web resources and services.